Wind_Speed
4 4 3 3 3 3 2 1 1 2 1 1 1 2 2 2 1 2 1 1 1 1 2 3 3 4 4 4 4 5 5 5 5 5 6 6 6 5 5 6 6 6 7
3 4 3 3 3 2 1 1 1 2 2 2 2 2 2 3 3 3 3 3 3 3 4 4 4 4 5 5 5 5 5 5 5 5 5 6 6 6 6 7 7 8 8
4 4 3 3 2 2 1 2 2 2 3 4 4 4 4 4 4 4 3 3 4 4 4 4 5 5 6 5 6 6 6 6 6 5 5 6 6 6 7 7 7 8 9
4 3 3 3 3 3 2 2 3 3 4 5 5 5 5 5 5 5 5 5 5 5 5 5 5 6 7 7 7 7 7 6 6 6 6 6 6 6 7 7 7 8 9
4 4 4 4 3 3 3 3 3 4 4 5 6 6 6 7 6 6 6 6 6 6 6 7 6 7 7 7 7 8 7 7 7 7 7 7 7 7 7 8 8 8 9
4 4 5 5 5 4 4 4 4 5 5 5 6 6 7 7 7 6 6 7 7 7 7 7 8 7 8 8 8 8 8 8 8 8 8 8 8 8 8 8 8 9 9
4 4 5 5 5 5 5 5 5 6 6 6 6 6 6 6 7 7 7 7 7 8 8 8 8 8 8 8 8 8 9 9 9 9 9 9 9 9 9 9 9 9 10
4 5 5 5 5 6 6 6 6 6 6 7 6 6 6 6 7 7 7 8 8 8 8 8 8 8 7 7 8 8 9 9 10 10 10 10 10 10 10 10 10 10 10
4 5 5 6 6 7 7 7 7 7 7 7 7 7 7 7 7 8 8 9 9 9 9 8 8 8 8 8 8 9 9 10 11 11 11 11 11 11 11 11 11 11 11
5 5 6 6 7 7 7 8 8 8 8 8 8 8 8 9 9 9 9 9 9 9 8 8 8 8 8 9 9 9 10 10 11 11 12 11 11 12 12 12 12 12 12
6 6 7 7 7 8 8 8 9 8 8 8 8 8 9 9 9 9 9 9 9 9 8 9 9 8 9 9 9 9 9 9 10 10 10 10 11 12 12 12 12 13 13
6 7 7 8 9 9 9 9 9 9 8 8 8 8 9 9 9 9 9 9 9 9 9 10 10 9 10 10 10 10 10 11 10 11 11 11 12 13 13 13 13 13 13
7 7 8 8 9 9 9 9 9 9 9 9 8 9 9 9 9 9 9 9 9 9 10 10 10 10 11 11 12 11 11 11 11 12 13 12 12 12 13 13 14 14 14
7 8 8 9 8 9 9 9 9 9 9 9 9 9 10 10 10 10 9 9 9 9 9 10 10 10 10 11 12 12 12 12 12 12 13 14 14 14 14 13 14 14 13
8 9 9 9 9 10 10 10 10 10 10 10 10 10 10 10 10 10 10 11 11 11 10 10 10 11 12 12 13 13 14 14 14 14 14 14 15 15 15 15 14 14 14
9 9 9 10 10 10 10 10 10 11 11 10 10 11 11 11 11 11 11 12 12 12 12 12 12 12 13 13 13 14 15 15 15 15 15 15 15 16 16 16 16 16 15
9 9 9 9 9 9 9 9 10 10 11 11 11 12 12 12 12 12 12 13 13 13 13 13 14 14 14 14 14 15 15 15 15 15 15 16 16 16 17 17 16 16 16
10 10 10 10 10 10 9 10 10 11 11 11 12 12 13 13 13 13 13 14 14 14 13 14 14 15 15 15 15 15 15 16 16 16 17 17 17 17 17 17 17 17 17
10 10 10 11 11 10 10 10 11 11 12 12 12 13 13 13 13 13 13 14 14 15 15 15 15 15 16 16 16 16 16 17 17 17 17 17 17 18 18 18 18 18 18
11 10 11 11 11 11 11 11 11 12 12 13 13 13 13 13 14 14 14 14 15 15 15 15 15 15 16 16 16 17 17 17 18 18 18 18 18 18 19 19 18 18 18
11 11 11 12 12 12 12 12 12 13 13 14 14 14 14 14 15 16 16 17 16 16 16 16 16 16 17 17 17 18 17 17 18 18 18 18 18 19 19 19 20 19 20
12 12 12 12 12 13 13 13 13 14 14 15 15 15 15 15 16 17 17 18 18 17 18 17 17 17 17 17 17 18 17 18 18 18 18 18 19 19 19 19 19 19 19
12 12 13 13 13 13 14 14 15 15 15 16 16 16 16 17 17 17 18 18 18 18 18 18 18 18 18 18 17 18 18 19 19 19 19 19 20 19 19 19 20 20 20
13 14 14 14 14 15 15 15 16 16 17 17 18 18 18 18 18 18 18 18 19 18 18 18 18 18 18 18 19 19 19 19 19 19 19 20 21 21 20 20 20 21 21
15 15 15 15 15 16 16 17 17 17 17 18 18 19 18 18 18 18 18 18 19 19 18 18 18 18 18 19 19 19 19 19 20 20 20 20 21 22 22 22 22 22 22
16 16 16 16 16 17 17 18 18 18 18 18 18 18 18 18 18 18 18 18 19 19 19 19 18 18 19 19 19 19 19 19 20 20 20 21 21 22 22 23 23 23 23
Wind_Direction
142 143 136 133 136 122 135 142 160 183 197 205 209 222 238 258 258 261 270 286 286 286 274 258 251 255 257 263 260 258 263 264 255 257 255 253 252 254 252 251 251 251 251
147 148 149 148 145 133 144 191 205 217 241 250 245 254 263 267 260 267 274 280 280 280 276 267 256 257 254 260 258 259 265 266 263 264 260 262 261 262 257 254 250 250 247
161 160 166 173 176 195 232 247 251 253 258 263 264 266 269 269 266 271 277 281 279 279 280 264 261 261 255 264 264 263 265 266 265 266 265 266 263 258 256 247 241 242 246
178 183 191 202 208 216 233 255 263 265 267 265 263 267 269 271 273 275 275 280 280 279 278 273 273 268 260 263 264 264 265 264 265 265 263 262 263 260 266 255 248 248 250
197 204 212 220 229 235 251 267 273 274 274 269 267 266 268 270 271 273 276 281 284 282 285 280 279 272 267 263 264 265 265 264 263 263 262 263 262 262 266 262 259 259 261
212 218 224 231 240 250 260 270 278 275 274 271 268 267 267 268 272 275 278 281 285 287 286 280 278 272 265 263 263 267 268 267 264 264 264 266 264 264 267 263 260 261 264
220 226 234 242 246 254 262 271 274 272 271 271 268 267 267 267 271 276 277 280 284 285 287 283 275 271 263 261 261 263 263 265 265 265 266 268 268 266 265 265 265 265 264
229 236 242 249 254 259 265 269 273 271 273 274 270 268 272 275 276 277 278 280 283 283 283 280 272 268 265 262 263 264 264 265 266 268 269 269 268 267 265 267 267 268 267
238 247 251 257 263 266 267 269 271 272 272 277 277 278 280 282 282 280 281 283 284 283 281 276 268 265 267 267 266 266 266 266 264 269 269 268 269 267 265 266 268 269 269
248 259 259 263 269 272 273 273 272 271 272 276 277 277 280 282 285 286 286 288 287 285 278 272 269 268 269 267 266 267 267 269 266 265 265 265 267 267 267 267 267 269 269
258 267 269 266 270 273 274 275 274 275 275 275 275 277 280 283 284 288 289 289 290 288 283 277 274 270 271 270 269 270 269 270 267 263 262 264 267 267 267 268 269 270 269
263 269 273 274 273 274 274 273 273 274 274 274 276 278 283 285 285 286 286 286 286 285 284 285 282 277 273 274 274 273 271 268 267 266 265 265 265 264 266 268 268 268 267
268 273 277 282 276 275 273 271 269 272 274 275 277 281 283 285 285 285 287 289 287 286 287 285 283 280 277 276 276 274 272 269 267 266 266 265 265 264 265 265 267 268 267
269 274 280 283 279 278 277 275 273 273 275 276 278 281 281 282 281 281 284 287 289 290 291 287 282 279 277 276 275 275 274 271 266 267 269 268 267 267 267 269 270 271 269
268 273 277 282 282 281 281 279 277 275 276 277 279 282 281 281 279 279 284 286 286 288 289 289 285 283 281 279 277 276 275 274 272 270 272 270 271 270 269 270 270 270 269
270 273 280 285 285 284 283 277 274 273 273 276 282 283 282 279 279 279 282 285 286 285 284 283 284 284 283 281 281 280 277 275 272 272 273 272 272 271 270 270 270 268 267
271 275 280 282 284 285 280 275 271 271 273 276 281 283 282 279 278 278 281 283 283 282 280 279 280 281 281 282 282 281 278 276 273 272 272 272 272 272 271 270 268 267 268
272 276 279 279 280 279 277 276 272 272 277 279 280 283 281 277 277 278 280 280 280 279 278 278 278 278 279 280 280 279 278 276 275 273 272 271 271 271 271 270 268 267 268
275 276 277 277 281 278 275 274 273 274 276 281 283 283 281 278 277 278 278 278 279 279 278 277 276 277 278 279 280 278 278 276 274 274 272 270 269 269 269 269 269 269 268
274 275 276 276 279 281 279 279 277 277 278 283 284 284 282 280 279 279 279 279 280 280 280 278 277 277 278 280 279 277 277 275 274 273 273 271 269 269 270 269 269 270 268
272 272 273 275 276 278 279 279 278 279 281 283 285 284 284 282 281 280 280 280 281 282 281 280 279 279 279 281 280 279 279 276 274 273 273 271 271 272 269 269 269 270 269
271 273 274 278 280 279 280 279 279 281 282 283 284 284 284 284 283 281 281 281 282 283 283 282 282 282 283 285 284 282 280 279 276 276 276 274 274 275 272 273 270 269 270
271 273 275 279 282 283 281 281 282 285 285 285 283 283 283 283 282 283 282 281 282 282 283 283 283 283 284 285 285 284 283 282 280 278 277 276 275 274 275 275 275 275 275
273 276 278 280 282 284 286 287 286 287 287 286 284 283 284 284 283 282 281 281 281 282 283 282 281 281 283 285 285 284 283 281 278 276 276 276 274 274 275 277 279 278 278
273 275 276 278 281 283 286 289 289 289 289 288 286 284 283 284 283 281 280 281 282 282 283 281 280 280 282 284 284 284 282 281 279 276 274 274 273 274 276 277 280 281 280
270 273 275 277 281 284 287 289 290 291 291 291 290 287 285 285 284 283 280 281 283 283 283 282 282 281 281 282 284 284 283 283 281 279 277 275 275 276 276 278 280 282 281
Height
5878 5877 5877 5877 5877 5877 5876 5876 5876 5876 5876 5875 5875 5875 5874 5874 5874 5873 5872 5872 5871 5871 5870 5870 5870 5869 5869 5869 5869 5869 5868 5868 5868 5867 5866 5866 5866 5866 5866 5865 5865 5865 5865
5878 5877 5877 5877 5877 5877 5876 5876 5876 5876 5875 5875 5875 5874 5874 5874 5873 5873 5872 5872 5871 5870 5870 5869 5869 5868 5868 5868 5868 5868 5867 5867 5867 5866 5866 5865 5865 5865 5865 5865 5864 5864 5864
5877 5877 5877 5877 5877 5877 5876 5876 5876 5875 5875 5874 5874 5874 5874 5873 5873 5872 5872 5871 5870 5870 5869 5868 5868 5867 5867 5867 5867 5867 5866 5866 5866 5865 5865 5864 5864 5864 5864 5863 5863 5862 5862
5877 5877 5877 5877 5877 5876 5876 5875 5875 5875 5874 5874 5873 5873 5873 5872 5872 5871 5871 5870 5869 5869 5868 5868 5867 5867 5866 5866 5866 5865 5865 5865 5865 5864 5864 5863 5863 5863 5862 5862 5862 5862 5862
5876 5877 5877 5876 5876 5876 5875 5875 5874 5874 5874 5873 5873 5872 5872 5872 5871 5870 5870 5869 5868 5868 5867 5867 5866 5865 5865 5865 5864 5864 5864 5863 5863 5863 5863 5862 5862 5861 5861 5861 5861 5861 5861
5876 5876 5876 5876 5876 5875 5875 5874 5874 5873 5873 5872 5871 5871 5871 5870 5870 5869 5869 5868 5867 5866 5865 5865 5864 5863 5863 5863 5862 5862 5862 5862 5862 5861 5861 5861 5860 5860 5860 5860 5859 5859 5859
5875 5875 5875 5875 5875 5874 5874 5873 5873 5872 5872 5871 5870 5870 5870 5869 5869 5868 5867 5867 5866 5865 5864 5863 5863 5862 5861 5861 5860 5860 5860 5860 5860 5860 5859 5859 5859 5858 5858 5858 5858 5858 5858
5874 5874 5874 5874 5874 5873 5873 5872 5872 5871 5871 5870 5869 5869 5868 5868 5867 5866 5866 5865 5864 5864 5862 5861 5861 5860 5859 5859 5859 5858 5858 5858 5858 5858 5857 5857 5857 5857 5857 5856 5856 5856 5856
5873 5873 5873 5873 5872 5872 5872 5871 5871 5870 5869 5869 5868 5868 5867 5867 5866 5865 5864 5864 5863 5862 5861 5859 5859 5858 5858 5857 5857 5857 5857 5857 5856 5856 5855 5854 5855 5855 5855 5854 5854 5854 5854
5872 5872 5872 5871 5871 5871 5870 5870 5869 5869 5868 5867 5867 5866 5866 5865 5864 5864 5863 5862 5861 5860 5859 5858 5857 5856 5856 5856 5855 5855 5855 5854 5854 5853 5853 5852 5852 5853 5852 5852 5852 5852 5852
5871 5871 5870 5870 5869 5869 5869 5868 5868 5867 5866 5866 5865 5865 5864 5863 5863 5862 5861 5860 5859 5858 5857 5856 5855 5855 5854 5854 5853 5853 5853 5852 5852 5851 5850 5850 5850 5850 5850 5850 5850 5849 5849
5870 5869 5869 5868 5867 5867 5867 5866 5865 5865 5864 5864 5863 5863 5862 5861 5860 5860 5859 5858 5857 5856 5855 5854 5853 5853 5852 5852 5851 5851 5850 5850 5849 5849 5848 5848 5848 5847 5847 5847 5847 5847 5847
5868 5868 5867 5866 5865 5865 5864 5863 5863 5863 5862 5862 5862 5861 5860 5860 5859 5858 5857 5856 5855 5854 5853 5853 5852 5851 5850 5849 5849 5848 5848 5847 5847 5846 5846 5845 5845 5844 5844 5844 5844 5843 5843
5867 5866 5865 5864 5863 5862 5861 5861 5860 5860 5860 5860 5859 5859 5858 5858 5857 5856 5855 5854 5854 5852 5851 5851 5850 5849 5848 5847 5846 5845 5845 5844 5844 5843 5843 5842 5842 5841 5841 5840 5840 5840 5840
5865 5864 5863 5862 5861 5860 5858 5857 5857 5858 5858 5858 5857 5856 5856 5855 5855 5854 5853 5852 5851 5850 5849 5848 5847 5846 5845 5844 5843 5843 5842 5841 5841 5840 5840 5839 5839 5838 5837 5837 5837 5837 5837
5863 5862 5861 5860 5859 5857 5855 5854 5854 5855 5855 5855 5855 5854 5854 5853 5852 5851 5851 5850 5849 5848 5847 5846 5845 5844 5843 5841 5840 5839 5839 5838 5837 5837 5836 5836 5835 5835 5834 5833 5833 5833 5833
5860 5860 5859 5858 5857 5855 5853 5852 5852 5853 5853 5853 5853 5852 5851 5850 5849 5849 5848 5847 5846 5845 5844 5843 5841 5840 5839 5838 5837 5836 5835 5834 5834 5833 5833 5832 5831 5831 5830 5830 5829 5829 5829
5858 5858 5857 5856 5855 5853 5852 5851 5851 5851 5851 5851 5850 5849 5848 5847 5846 5846 5845 5844 5842 5841 5840 5839 5838 5837 5836 5835 5834 5833 5832 5831 5830 5829 5829 5828 5827 5827 5826 5826 5825 5825 5825
5856 5856 5855 5854 5853 5852 5851 5850 5850 5849 5849 5849 5848 5847 5845 5844 5843 5842 5841 5840 5839 5838 5837 5836 5835 5833 5832 5831 5830 5829 5828 5827 5826 5825 5824 5824 5823 5822 5822 5822 5822 5821 5821
5853 5853 5852 5852 5851 5850 5849 5848 5848 5847 5847 5846 5845 5843 5842 5841 5840 5839 5838 5836 5835 5834 5833 5832 5831 5829 5828 5827 5826 5825 5824 5822 5822 5821 5820 5819 5819 5818 5818 5818 5817 5817 5816
5851 5850 5850 5849 5848 5848 5847 5846 5845 5844 5844 5842 5841 5840 5839 5838 5836 5835 5834 5832 5831 5830 5829 5828 5826 5825 5824 5823 5822 5820 5819 5818 5817 5816 5816 5815 5814 5814 5813 5813 5813 5812 5812
5848 5848 5847 5847 5846 5845 5844 5843 5842 5841 5840 5839 5838 5836 5835 5834 5832 5831 5830 5828 5827 5826 5825 5824 5822 5821 5820 5818 5817 5816 5815 5814 5813 5812 5811 5810 5810 5809 5808 5808 5807 5807 5806
5845 5844 5844 5843 5843 5842 5841 5840 5839 5838 5837 5835 5834 5832 5831 5829 5828 5826 5825 5824 5823 5822 5820 5819 5818 5816 5815 5814 5813 5812 5810 5809 5808 5807 5806 5805 5805 5804 5803 5803 5802 5801 5801
5841 5841 5840 5840 5839 5838 5837 5836 5835 5834 5832 5831 5829 5828 5826 5825 5823 5822 5820 5819 5818 5817 5815 5814 5813 5811 5810 5809 5808 5806 5805 5803 5803 5802 5801 5800 5799 5798 5798 5797 5796 5795 5795
5838 5837 5837 5836 5835 5834 5833 5832 5831 5829 5828 5826 5824 5823 5821 5820 5818 5817 5815 5814 5813 5811 5810 5809 5807 5807 5805 5804 5803 5801 5800 5798 5797 5796 5795 5794 5793 5792 5792 5791 5790 5789 5788
5834 5833 5833 5832 5831 5830 5829 5828 5826 5825 5823 5821 5819 5818 5816 5815 5814 5812 5810 5809 5808 5806 5805 5804 5802 5801 5800 5799 5797 5796 5794 5793 5791 5790 5789 5788 5787 5787 5785 5784 5783 5782 5781